sat.trackr.live / text

‹ back to catalog

GPS BIIR-11 (PRN 19)

NORAD 28190 · 2004-009A

PAYLOAD ACTIVE UNKNOWN

§ Identity

Operator
Country
US
Launch date
2004-03-20
Launch site
AFETR
Launch vehicle
Mass (kg)
RCS (m²)
7.94

Purposes: earth_obs, nav

External: N2YO · Heavens-Above · Gunter

§ Orbital elements

Epoch: 2026-05-24T22:52:10.267104Z

Period
718.01 min
Inclination
54.8497°
Eccentricity
0.0115098
Mean motion
2.00555464 rev/d
Perigee alt
19,877.2 km
Apogee alt
20,488.6 km
Semi-major
26,561.1 km
B*
0.0000e+0
RAAN
276.6255°
Arg perigee
172.0582°
Mean anomaly
185.2227°
Rev number
16,247

§ Raw data

GPS BIIR-11 (PRN 19)1 28190U 04009A   26144.95289661 -.00000078  00000+0  00000+0 0  99902 28190  54.8497 276.6255 0115098 172.0582 185.2227  2.00555464162479

JSON: /api/v1/satellites/28190 · /tle

For live sub-satellite position, see the globe view (requires WebGL).

§ Visibility from observer

Set your observer location to see the next 7 days of passes ≥ 10°. The values pass through the URL so the page stays shareable.

No JS? Fill the form by hand. The geolocation button needs JavaScript.